329P/LINEAR-Catalina (2004)

Japanese version
Home page
Updated on December 6, 2015

---------------------------------------------------------------------

* Profile

Designation 329P/2003 WC7
Discovery Date November 18, 2003 and January 31, 2004
Magnitude 19.6 mag, 17.6 mag
Discoverer Lincoln Laboratory Near-Earth Asteroid Research project, Catalina Sky Survey

* Orbital Elements

Epoch 2004 Feb. 5.0 TT = JDT 2453040.5
T 2004 Feb. 5.74590 TT                                  MPCW
q   1.6548921            (2000.0)            P               Q
n   0.08343065     Peri.  341.05753     +0.30445859     -0.88107630
a   5.1870327      Node    89.88788     +0.91398835     +0.16323459
e   0.6809559      Incl.   21.22019     +0.26819817     +0.44391330
P  11.8
From 115 observations 2003 Nov. 18-2015 Oct. 12, mean residual 0".6.

* Finding Charts

* Magnitudes Graph

        m1 = 9.5 + 5 log d + 30 log r(t - 30)

---------------------------------------------------------------------

The orbital elements are published on M.P.E.C. 2015-T72.
The charts are made with StellaNavigator Ver.2.0 for Windows (AstroArts / ASCII).
The magnitudes graphs are made with Comet for Windows.

---------------------------------------------------------------------

Copyright(C) Seiichi Yoshida (comet@aerith.net). All rights reserved.